Location: Unspecified
(0.0000°N, 0.0000°E)
Time: 13:44:45
(UTC+00:00)

LightSail 2 - Pass Details

Date: 24 November 2019
Orbit: 696 x 730 km, 24.0° (Epoch: 08 December)

Event Time Altitude Azimuth Distance (km) Brightness Sun altitude
Rises 19:06:18 0° 269° (W) 3,070 9.7 -18.6°
Reaches altitude 10° 19:09:08 10° 283° (WNW) 2,146 8.4 -19.2°
Maximum altitude 19:13:12 24° 336° (NNW) 1,410 6.7 -20.2°
Enters shadow 19:14:51 20° 5° (N) 1,553 6.6 -20.6°
